Location: Unspecified
(49.2170°N, 0.0000°E)
Time: 10:26:34
(UTC+00:00)

Explorer 11/Cluster Stage 4 - All Passes

Search period start: 24 January 2021 00:00
Search period end: 03 February 2021 00:00
Orbit: 467 x 1258 km, 28.8° (Epoch: 23 January)

Date Brightness Start Highest point End Pass type
(mag) Time Alt. Az. Time Alt. Az. Time Alt. Az.
24 Jan - 00:06:32 10° SW 00:09:56 14° S 00:13:29 10° SSE night (unlit)
24 Jan - 22:08:07 10° SSW 22:11:05 13° S 22:14:15 10° SSE night (unlit)
24 Jan - 23:55:54 10° SSW 23:58:42 12° S 00:01:36 10° SSE night (unlit)
25 Jan - 21:57:17 10° SSW 21:59:53 12° S 22:02:39 10° SSE night (unlit)
25 Jan - 23:45:37 10° SSW 23:47:27 11° S 23:49:22 10° S night (unlit)
26 Jan - 21:46:38 10° SSW 21:48:43 12° S 21:50:55 10° SSE night (unlit)
27 Jan - 21:36:18 10° S 21:37:34 11° S 21:38:51 10° SSE night (unlit)
